This is the latest recevied weather packets stored in our database for station/object KI5RAB. If no packets are shown the sender has not sent any weather packets the latest 10 day(s).
| Time | Temp. | Humidity | Pressure | Rain* | Wind** | Luminosity | Snow |
|---|---|---|---|---|---|---|---|
| 1788215289 | 36.11° C | 45% | 1016.3 hPa | 0 mm | - | 291 W/m² | - |
| 1788214984 | 35.56° C | 45% | 1016.4 hPa | 0 mm | - | 310 W/m² | - |
| 1788214679 | 35.56° C | 45% | 1016.3 hPa | 0 mm | - | 318 W/m² | - |
| 1788214375 | 35.56° C | 46% | 1016.4 hPa | 0 mm | - | 327 W/m² | - |
| 1788214075 | 35° C | 47% | 1016.3 hPa | 0 mm | - | 144 W/m² | - |
| 1788213770 | 35° C | 46% | 1016.3 hPa | 0 mm | - | 73 W/m² | - |
| 1788213464 | 35.56° C | 45% | 1016.6 hPa | 0 mm | - | 107 W/m² | - |
| 1788213161 | 36.11° C | 44% | 1016.6 hPa | 0 mm | - | 418 W/m² | - |
| 1788212857 | 36.11° C | 45% | 1016.7 hPa | 0 mm | - | 433 W/m² | - |
| 1788212554 | 36.11° C | 44% | 1016.7 hPa | 0 mm | - | 460 W/m² | - |
| 1788212256 | 36.11° C | 44% | 1016.9 hPa | 0 mm | - | 475 W/m² | - |
| 1788211946 | 35° C | 45% | 1016.9 hPa | 0 mm | - | 502 W/m² | - |
| 1788211646 | 35° C | 45% | 1017 hPa | 0 mm | - | 131 W/m² | - |
| 1788211343 | 35.56° C | 45% | 1017 hPa | 0 mm | - | 139 W/m² | - |
| 1788211041 | 35.56° C | 44% | 1017 hPa | 0 mm | - | 534 W/m² | - |
| 1788210737 | 35° C | 46% | 1017.2 hPa | 0 mm | - | 116 W/m² | - |
| 1788210431 | 35.56° C | 45% | 1017.2 hPa | 0 mm | - | 144 W/m² | - |
| 1788210128 | 36.11° C | 44% | 1017.3 hPa | 0 mm | - | 556 W/m² | - |
| 1788209826 | 36.67° C | 43% | 1017.2 hPa | 0 mm | - | 554 W/m² | - |
| 1788209522 | 36.11° C | 42% | 1017.2 hPa | 0 mm | - | 587 W/m² | - |
| 1788209217 | 36.67° C | 42% | 1017.6 hPa | 0 mm | - | 246 W/m² | - |
| 1788208916 | 36.67° C | 44% | 1017.6 hPa | 0 mm | - | 583 W/m² | - |
| 1788208615 | 36.67° C | 44% | 1017.8 hPa | 0 mm | - | 600 W/m² | - |
| 1788208309 | 36.67° C | 44% | 1017.9 hPa | 0 mm | - | 450 W/m² | - |
| 1788208008 | 36.67° C | 44% | 1017.9 hPa | 0 mm | - | 600 W/m² | - |
* Rain latest hour (hover to see other rain measurements)
** Current wind speed in m/s (hover to see current wind gust speed)